Вернуться в каталог

SL-14 DEB

LostPO
NORAD 39978·DEBRIS·🇷🇺 Russia

Запущен Aug 18, 1987 с Plesetsk Cosmodrome

Loading…

Ближайшие Пролёты (ближайшие 24 часа)

TLE

УстаревшееSource: Space-Track

Эпоха: Jul 31, 2024, 12:32 UTC

1 39978U 87068DE  24213.52246791  .00002083  00000-0  15291-2 0  9996
2 39978  82.4122 292.8503 0047883 178.3107 181.8230 13.94786429 45468

Отслеживайте SL-14 DEB в реальном времени с AllMySat

Download on the App Store